Regional Weather Roundup
Issued by NWS

Home | Current Version | Previous Version | Graphics & Text | Print | Product List | Glossary On
Versions: 1 2 3 4 5 6 7 8 9 10 11 12 13 14 15 16 17 18 19 20 21 22 23 24 25 26 27 28 29 30 31 32 33 34 35 36 37 38 39 40 41 42 43 44 45 46 47 48 49 50
000
ASUS45 KBOI 212110
RWRID
WEATHER ROUNDUP FOR IDAHO
NATIONAL WEATHER SERVICE BOISE ID
200 PM MST SUN DEC 21 2014

NOTE: "FAIR" INDICATES FEW OR NO CLOUDS BELOW 12000 FEET
WITH NO SIGNIFICANT WEATHER AND/OR OBSTRUCTIONS TO VISIBILITY

IDZ012-014-212200-
SOUTHWEST IDAHO


CITY           SKY/WX    TMP DP  RH WIND       PRES   REMARKS
BOISE          LGT RAIN  45  42  89 NW12      29.98R FOG
CALDWELL       CLOUDY    46  39  76 W12G18    29.99R
MOUNTAIN HOME  LGT RAIN  45  42  86 N24       29.94R
$$

IDZ016-017-212200-
SOUTHCENTRAL IDAHO


CITY           SKY/WX    TMP DP  RH WIND       PRES   REMARKS
BURLEY         LGT RAIN  48  43  82 W24G40    29.86R
JEROME         LGT RAIN  45  43  93 W24G32    29.90R
TWIN FALLS     LGT RAIN  49  43  80 W25G35    29.89R
$$

IDZ019>023-212200-
SOUTHEAST IDAHO


CITY           SKY/WX    TMP DP  RH WIND       PRES   REMARKS
IDAHO FALLS    CLOUDY    44  37  76 W21G28    29.72S
POCATELLO      PTSUNNY   47  43  86 W31G44    29.78F
REXBURG        CLOUDY    42  37  82 W17       29.71R
$$

IDZ006-010-011-018-031-032-212200-
CENTRAL IDAHO MOUNTAINS


CITY           SKY/WX    TMP DP  RH WIND       PRES   REMARKS
MCCALL         LGT RAIN  34  33  96 SW3       29.89S
HAILEY         CLOUDY    37  36  93 NW9       29.83R WCI  31
STANLEY          N/A     35  30  82 N10       29.86R WCI  27
SALMON         CLOUDY    43  28  56 W7G17     29.76R
CHALLIS        CLOUDY    42  25  50 W15       29.79R
$$

IDZ002-004-006-007-026-212200-
NORTHERN IDAHO


CITY           SKY/WX    TMP DP  RH WIND       PRES   REMARKS
LEWISTON       LGT RAIN  53  37  54 W22G32    29.84S
LOWELL           N/A     45  44  97 CALM      29.84F
COEUR D`ALENE  MOSUNNY   46  37  71 W21G29    29.76S
MULLAN PASS      N/A    N/A N/A N/A MISG      29.71R
$$



USA.gov is the U.S. government's official web portal to all federal, state and local government web resources and services.